Location: Cactus School
(34.5700°N, 118.0931°W)
Time: 03:00:29
(UTC-08:00)

Tiros 1 - Pass Details

Date: 25 November 2019
Orbit: 630 x 664 km, 48.4° (Epoch: 12 December)

Event Time Altitude Azimuth Distance (km) Brightness Sun altitude
Rises 14:38:35 0° 305° (NW) 2,916 10.6 20.1°
Reaches altitude 10° 14:41:56 10° 330° (NNW) 2,008 9.6 19.7°
Maximum altitude 14:44:28 14° 3° (N) 1,734 9.0 19.3°
Drops below altitude 10° 14:47:00 10° 37° (NE) 2,011 9.2 18.9°
Sets 14:50:21 0° 62° (ENE) 2,923 9.9 18.4°
